Easton, MD

11:13 AM EDT on September 15, 2019 (GMT -0400)
Easton / Newnam

Weather History for KESN - July, 2019

Change the Weather History Date:

Monday, July 29, 2019

  Actual Average Record
Temperature  
Mean Temperature 88 °F -  
Max Temperature 95 °F 87 °F 98 °F (1954)
Min Temperature 81 °F 68 °F 59 °F (1977)
Cooling Degree Days 23    
Growing Degree Days 38 (Base 50)    
Moisture  
Dew Point 70 °F    
Average Humidity 57    
Maximum Humidity 77    
Minimum Humidity 34    
Precipitation  
Precipitation 0.00 in - - ()
Sea Level Pressure  
Sea Level Pressure 30.05 in    
Wind  
Wind Speed 6 mph (SSW)    
Max Wind Speed 12 mph    
Max Gust Speed -    
Visibility 10 miles    
Events      
Averages and records for this station are not official NWS values.
T = Trace of Precipitation, MM = Missing Value Source: NWS Daily Summary

Daily Weather History Graph

Daily Weather History Graph

Search for Another Location

Airport or City:

Astronomy

Jul. 29, 2019 Rise Set
Actual Time 6:02 AM EDT 8:18 PM EDT
Civil Twilight 5:32 AM EDT 8:48 PM EDT
Nautical Twilight 4:55 AM EDT 9:24 PM EDT
Astronomical Twilight 4:15 AM EDT 10:04 PM EDT
Moon 3:13 AM EDT (7/29) 6:18 PM EDT (7/29)
Length of Visible Light 15h 15m
Length of Day
14h 15m
Waning Crescent, 8% of the Moon is Illuminated
Jul 29
Waning Crescent
Jul 31
New
Aug 7
First Quarter
Aug 15
Full
Aug 23
Last Quarter

Hourly Weather History & Observations

Time (EDT) Temp. Heat Index Dew Point Humidity Pressure Visibility Wind Dir Wind Speed Gust Speed Precip Events Conditions
8:50 AM 82.4 °F 86.3 °F 69.8 °F 66% 30.10 in 10.0 mi SW 4.6 mph - N/A   Clear
9:49 AM 84.2 °F 89.6 °F 71.6 °F 66% 30.09 in 10.0 mi SW 4.6 mph - N/A   Clear
10:55 AM 87.8 °F 93.8 °F 71.6 °F 58% 30.09 in 10.0 mi SSW 3.5 mph - N/A   Clear
11:45 AM 91.4 °F 96.8 °F 69.8 °F 49% 30.08 in 10.0 mi West 5.8 mph - N/A   Clear
12:45 PM 93.2 °F 97.7 °F 68.0 °F 44% 30.07 in 10.0 mi SSW 3.5 mph - N/A   Partly Cloudy
1:50 PM 93.2 °F 96.2 °F 66.2 °F 41% 30.06 in 10.0 mi South 4.6 mph - N/A   Partly Cloudy
2:45 PM 93.2 °F 96.2 °F 66.2 °F 41% 30.05 in 10.0 mi SSW 8.1 mph - N/A   Partly Cloudy
3:48 PM 95.0 °F 96.0 °F 62.6 °F 34% 30.04 in 10.0 mi SSW 9.2 mph - N/A   Partly Cloudy
4:45 PM 93.2 °F 94.1 °F 62.6 °F 36% 30.03 in 10.0 mi SSW 9.2 mph - N/A   Partly Cloudy
5:49 PM 93.2 °F 94.9 °F 64.4 °F 38% 30.01 in 10.0 mi SSW 6.9 mph - N/A   Clear
6:50 PM 91.4 °F 96.8 °F 69.8 °F 49% 30.01 in 10.0 mi South 9.2 mph - N/A   Partly Cloudy
7:50 PM 89.6 °F 94.7 °F 69.8 °F 52% 30.03 in 10.0 mi South 11.5 mph - N/A   Partly Cloudy
8:50 PM 86.0 °F 91.8 °F 71.6 °F 62% 30.04 in 10.0 mi South 8.1 mph - N/A   Partly Cloudy
9:45 PM 84.2 °F 89.6 °F 71.6 °F 66% 30.04 in 10.0 mi South 6.9 mph - N/A   Partly Cloudy
10:18 PM 83.7 °F 88.9 °F 71.6 °F 67% 30.05 in 10.0 mi South 6.9 mph - N/A   Clear
10:38 PM 83.3 °F 89.0 °F 72.5 °F 70% 30.05 in 10.0 mi South 6.9 mph - N/A   Clear
10:58 PM 82.6 °F 88.3 °F 73.0 °F 73% 30.05 in 10.0 mi South 5.8 mph - N/A   Clear
11:18 PM 82.0 °F 87.7 °F 73.4 °F 75% 30.05 in 10.0 mi South 5.8 mph - N/A   Clear
11:38 PM 81.5 °F 86.9 °F 73.6 °F 77% 30.05 in 10.0 mi South 5.8 mph - N/A   Clear
11:58 PM 81.7 °F 87.3 °F 73.8 °F 77% 30.05 in 10.0 mi South 5.8 mph - N/A   Clear